DW8320 Weather Reports


time (UTC)temp
C
wind
direction
speed
KPH
gust
KPH
rain 1hr
cm
rain 24hr
cm
rain mn
cm
humidity
%
barometer
mb
20260509024536 12 139 0.0 1.6 0.00 0.00 0.00 80 1010.5
20260509024028 12 115 0.0 1.6 0.00 0.00 0.00 81 1010.5
20260509023508 12 146 0.0 3.2 0.00 0.00 0.00 81 1010.5
20260509023100 12 146 0.0 3.2 0.00 0.00 0.00 81 1010.5
20260509022542 12 316 0.0 3.2 0.00 0.00 0.00 82 1010.5
20260509022028 12 43 0.0 0.0 0.00 0.00 0.00 81 1010.4
20260509021516 12 5 0.0 0.0 0.00 0.00 0.00 81 1010.2
20260509021102 12 5 0.0 0.0 0.00 0.00 0.00 81 1010.0
20260509020549 12 5 0.0 0.0 0.00 0.00 0.00 81 1009.9
20260509020036 12 5 0.0 0.0 0.00 0.00 0.00 81 1009.8
20260509015502 12 6 0.0 0.0 0.00 0.00 0.00 80 1009.7
20260509015046 12 6 0.0 0.0 0.00 0.00 0.00 80 1009.7
20260509014538 13 6 0.0 0.0 0.00 0.00 0.00 79 1009.6
20260509014026 13 6 0.0 0.0 0.00 0.00 0.00 79 1009.6
20260509013512 13 6 0.0 0.0 0.00 0.00 0.00 78 1009.6
20260509013120 13 6 0.0 0.0 0.00 0.00 0.00 77 1009.6
20260509012550 13 5 0.0 3.2 0.00 0.00 0.00 77 1009.7
20260509012040 13 5 1.6 6.4 0.00 0.00 0.00 77 1009.8
20260509011525 14 65 0.0 6.4 0.00 0.00 0.00 75 1009.8
20260509011006 13 90 0.0 0.0 0.00 0.00 0.00 75 1009.9
20260509010558 13 341 0.0 0.0 0.00 0.00 0.00 74 1009.8
20260509010048 14 341 0.0 0.0 0.00 0.00 0.00 73 1009.7
20260509005514 14 341 0.0 0.0 0.00 0.00 0.00 70 1009.5
20260509005101 14 341 0.0 0.0 0.00 0.00 0.00 66 1009.6
20260509004554 14 342 0.0 0.0 0.00 0.00 0.00 64 1009.4
20260509004041 15 342 0.0 0.0 0.00 0.00 0.00 64 1009.3
20260509003530 15 342 0.0 0.0 0.00 0.00 0.00 62 1009.2
20260509003015 15 342 0.0 0.0 0.00 0.00 0.00 66 1009.2
20260509002554 15 341 0.0 0.0 0.00 0.00 0.00 66 1009.1
20260509002050 15 341 0.0 0.0 0.00 0.00 0.00 66 1009.2
20260509001538 15 341 0.0 0.0 0.00 0.00 0.00 63 1009.2
20260509001021 15 341 0.0 0.0 0.00 0.00 0.00 63 1009.3
20260509000508 15 341 0.0 0.0 0.00 0.00 0.00 61 1009.4
20260509000058 15 341 0.0 0.0 0.00 0.00 0.00 64 1009.4
20260508235534 16 342 0.0 0.0 0.00 0.00 0.00 63 1009.3
20260508235021 16 341 0.0 0.0 0.00 0.00 0.00 63 1009.3
20260508234505 16 341 0.0 0.0 0.00 0.00 0.00 60 1009.2
20260508234050 16 341 0.0 0.0 0.00 0.00 0.00 58 1009.1
20260508233540 16 342 0.0 0.0 0.00 0.00 0.00 59 1009.2
20260508233033 16 341 0.0 0.0 0.00 0.00 0.00 58 1009.0
20260508232518 16 341 0.0 0.0 0.00 0.00 0.00 57 1009.1
20260508232002 16 342 0.0 0.0 0.00 0.00 0.00 56 1009.2
20260508231553 16 341 0.0 0.0 0.00 0.00 0.00 58 1009.4
20260508231036 17 341 0.0 0.0 0.00 0.00 0.00 56 1009.3
20260508230528 17 341 0.0 0.0 0.00 0.00 0.00 53 1009.2
20260508230112 17 342 0.0 0.0 0.00 0.00 0.00 50 1009.2
20260508225546 17 342 0.0 0.0 0.00 0.00 0.00 50 1009.0
20260508225029 17 341 0.0 0.0 0.00 0.00 0.00 48 1009.0
20260508224538 18 342 0.0 1.6 0.00 0.00 0.00 46 1009.0
20260508224100 18 341 0.0 3.2 0.00 0.00 0.00 46 1009.0
20260508223555 18 343 0.0 6.4 0.00 0.00 0.00 46 1009.0
20260508223038 18 136 0.0 6.4 0.00 0.00 0.00 47 1009.0
20260508222518 18 84 0.0 3.2 0.00 0.00 0.00 44 1009.0
20260508222014 18 169 0.0 3.2 0.00 0.00 0.00 45 1009.0
20260508221607 18 156 0.0 6.4 0.00 0.00 0.00 43 1008.9
20260508221049 18 146 1.6 6.4 0.00 0.00 0.00 44 1008.9
20260508220542 18 190 0.0 0.0 0.00 0.00 0.00 45 1008.9
20260508220008 18 190 0.0 1.6 0.00 0.00 0.00 44 1009.0
20260508215558 18 191 0.0 3.2 0.00 0.00 0.00 44 1008.9
20260508215052 18 318 0.0 3.2 0.00 0.00 0.00 46 1008.8
20260508214544 18 129 0.0 1.6 0.00 0.00 0.00 41 1008.9
20260508214037 18 129 0.0 3.2 0.00 0.00 0.00 41 1008.9
20260508213524 18 153 0.0 3.2 0.00 0.00 0.00 41 1008.9
20260508213004 18 323 0.0 9.7 0.00 0.00 0.00 45 1009.0
20260508212557 19 324 0.0 9.7 0.00 0.00 0.00 43 1009.1
20260508212040 19 167 0.0 4.8 0.00 0.00 0.00 45 1009.1
20260508211532 19 167 0.0 3.2 0.00 0.00 0.00 41 1009.1
20260508211016 19 160 0.0 3.2 0.00 0.00 0.00 45 1009.2
20260508210553 19 291 0.0 3.2 0.00 0.00 0.00 46 1009.2
20260508210042 19 152 0.0 3.2 0.00 0.00 0.00 41 1009.3
20260508205513 19 146 0.0 1.6 0.00 0.00 0.00 43 1009.4
20260508205056 19 15 0.0 1.6 0.00 0.00 0.00 46 1009.5
20260508204548 19 15 0.0 3.2 0.00 0.00 0.00 48 1009.7
20260508204032 19 127 0.0 3.2 0.00 0.00 0.00 41 1009.9
20260508203514 19 245 0.0 1.6 0.00 0.00 0.00 46 1009.9
20260508203116 20 330 0.0 1.6 0.00 0.00 0.00 48 1009.9
20260508202548 20 330 0.0 3.2 0.00 0.00 0.00 48 1010.1
20260508202034 20 87 0.0 3.2 0.00 0.00 0.00 49 1010.1
20260508201532 20 209 0.0 1.6 0.00 0.00 0.00 42 1010.1
20260508201017 19 210 0.0 4.8 0.00 0.00 0.00 43 1010.2
20260508200558 20 135 0.0 4.8 0.00 0.00 0.00 40 1010.4
20260508200053 20 148 0.0 4.8 0.00 0.00 0.00 43 1010.3
20260508195516 19 256 0.0 1.6 0.00 0.00 0.00 43 1010.2
20260508195100 19 63 0.0 1.6 0.00 0.00 0.00 42 1010.4
20260508194551 19 81 0.0 4.8 0.00 0.00 0.00 43 1010.5
20260508194041 19 237 0.0 6.4 0.00 0.00 0.00 43 1010.5
20260508193532 20 134 0.0 6.4 0.00 0.00 0.00 38 1010.5
20260508193035 20 271 0.0 3.2 0.00 0.00 0.00 44 1010.6
20260508192602 20 20 0.0 3.2 0.00 0.00 0.00 42 1010.5
20260508192052 21 326 0.0 3.2 0.00 0.00 0.00 43 1010.5
20260508191543 21 316 0.0 3.2 0.00 0.00 0.00 40 1010.6
20260508191030 21 315 0.0 3.2 0.00 0.00 0.00 34 1010.7
20260508190518 22 67 0.0 6.4 0.00 0.00 0.00 35 1010.8
20260508190114 22 338 0.0 6.4 0.00 0.00 0.00 35 1010.8
20260508185542 22 330 0.0 3.2 0.00 0.00 0.00 30 1010.9
20260508185034 23 318 0.0 3.2 0.00 0.00 0.00 33 1011.0
20260508184521 22 77 0.0 3.2 0.00 0.00 0.00 35 1011.1
20260508184004 22 316 0.0 4.8 0.00 0.00 0.00 33 1011.1
20260508183552 22 354 0.0 8.0 0.00 0.00 0.00 33 1011.1
20260508183042 22 148 0.0 8.0 0.00 0.00 0.00 33 1011.2
20260508182531 21 325 0.0 8.0 0.00 0.00 0.00 33 1011.4
20260508182015 22 312 0.0 8.0 0.00 0.00 0.00 39 1011.5
20260508181600 22 311 1.6 4.8 0.00 0.00 0.00 37 1011.6
20260508181048 22 336 0.0 3.2 0.00 0.00 0.00 40 1011.7
20260508180532 22 327 0.0 3.2 0.00 0.00 0.00 37 1011.8
20260508180136 22 316 0.0 11.3 0.00 0.00 0.00 33 1011.8
20260508175546 22 84 1.6 11.3 0.00 0.00 0.00 36 1012.0
20260508175039 22 194 3.2 12.9 0.00 0.00 0.00 35 1012.0
20260508174535 22 87 1.6 8.0 0.00 0.00 0.00 42 1012.1
20260508174011 21 339 0.0 3.2 0.00 0.00 0.00 40 1012.1
20260508173559 21 320 0.0 4.8 0.00 0.00 0.00 38 1012.1
20260508173049 21 318 0.0 4.8 0.00 0.00 0.00 37 1012.3
20260508172534 21 288 0.0 14.5 0.00 0.00 0.00 41 1012.4
20260508172014 21 200 1.6 14.5 0.00 0.00 0.00 41 1012.4
20260508171628 21 134 0.0 6.4 0.00 0.00 0.00 40 1012.6
20260508171051 21 319 0.0 11.3 0.00 0.00 0.00 40 1012.7
20260508170542 21 311 1.6 11.3 0.00 0.00 0.00 41 1012.8
20260508170038 21 291 1.6 12.9 0.00 0.00 0.00 37 1012.8
20260508165515 22 143 3.2 12.9 0.00 0.00 0.00 37 1013.0
20260508165054 22 338 3.2 12.9 0.00 0.00 0.00 36 1013.1
20260508164545 22 11 1.6 6.4 0.00 0.00 0.00 36 1013.2
20260508164035 22 160 0.0 8.0 0.00 0.00 0.00 40 1013.3
20260508163516 22 205 0.0 9.7 0.00 0.00 0.00 40 1013.4
20260508163005 21 146 0.0 6.4 0.00 0.00 0.00 43 1013.6
20260508162557 21 172 1.6 6.4 0.00 0.00 0.00 41 1013.6
20260508162047 21 326 0.0 11.3 0.00 0.00 0.00 41 1013.6
20260508161539 20 138 0.0 11.3 0.00 0.00 0.00 43 1013.7
20260508161015 20 290 1.6 6.4 0.00 0.00 0.00 39 1013.7
20260508160501 21 316 0.0 6.4 0.00 0.00 0.00 39 1013.7
20260508160058 21 320 0.0 6.4 0.00 0.00 0.00 38 1013.7
20260508155521 20 316 0.0 14.5 0.00 0.00 0.00 39 1013.9
20260508155003 21 142 0.0 8.0 0.00 0.00 0.00 40 1014.0
20260508154552 20 200 0.0 8.0 0.00 0.00 0.00 41 1014.0
20260508154038 20 120 0.0 4.8 0.00 0.00 0.00 43 1014.1
20260508153526 20 181 0.0 3.2 0.00 0.00 0.00 39 1014.1
20260508153019 20 327 0.0 9.7 0.00 0.00 0.00 40 1014.2
20260508152554 20 86 1.6 11.3 0.00 0.00 0.00 39 1014.3
20260508152043 20 167 0.0 6.4 0.00 0.00 0.00 40 1014.4
20260508151541 20 312 0.0 3.2 0.00 0.00 0.00 43 1014.4
20260508151021 19 319 0.0 3.2 0.00 0.00 0.00 45 1014.5
20260508150558 19 324 0.0 3.2 0.00 0.00 0.00 40 1014.5
20260508150051 19 314 0.0 4.8 0.00 0.00 0.00 40 1014.5
20260508145527 19 117 0.0 11.3 0.00 0.00 0.00 43 1014.5
20260508145019 19 197 1.6 11.3 0.00 0.00 0.00 39 1014.5
20260508144557 19 202 0.0 6.4 0.00 0.00 0.00 42 1014.7
20260508144043 18 180 0.0 6.4 0.00 0.00 0.00 44 1014.6
20260508143535 18 72 0.0 6.4 0.00 0.00 0.00 48 1014.5
20260508143024 18 327 0.0 4.8 0.00 0.00 0.00 42 1014.6
20260508142523 18 195 0.0 4.8 0.00 0.00 0.00 44 1014.7
20260508142059 18 156 0.0 4.8 0.00 0.00 0.00 44 1014.8
20260508141551 18 195 0.0 3.2 0.00 0.00 0.00 47 1014.8
20260508141040 17 13 0.0 4.8 0.00 0.00 0.00 42 1014.9
20260508140530 17 312 0.0 3.2 0.00 0.00 0.00 41 1014.8
20260508140119 17 77 0.0 8.0 0.00 0.00 0.00 47 1014.9
20260508135549 17 347 0.0 8.0 0.00 0.00 0.00 47 1015.0
20260508135035 17 167 0.0 4.8 0.00 0.00 0.00 48 1015.0
20260508134519 16 79 0.0 3.2 0.00 0.00 0.00 47 1015.0
20260508134003 16 93 0.0 6.4 0.00 0.00 0.00 44 1015.0
20260508133555 16 325 0.0 6.4 0.00 0.00 0.00 46 1014.9
20260508133100 16 330 0.0 3.2 0.00 0.00 0.00 45 1014.9
20260508132526 16 320 0.0 3.2 0.00 0.00 0.00 45 1015.0
20260508132017 16 226 0.0 4.8 0.00 0.00 0.00 50 1014.9
20260508131602 16 307 0.0 4.8 0.00 0.00 0.00 47 1015.0
20260508131049 16 338 0.0 3.2 0.00 0.00 0.00 47 1014.9
20260508130530 15 115 0.0 3.2 0.00 0.00 0.00 48 1014.9
20260508130139 15 215 0.0 3.2 0.00 0.00 0.00 50 1014.9
20260508125545 15 36 0.0 1.6 0.00 0.00 0.00 54 1015.0
20260508125034 15 153 0.0 3.2 0.00 0.00 0.00 50 1014.9
20260508124521 14 312 0.0 1.6 0.00 0.00 0.00 51 1014.9
20260508124059 14 312 0.0 1.6 0.00 0.00 0.00 57 1014.9
20260508123547 13 167 0.0 1.6 0.00 0.00 0.00 57 1014.8
20260508123031 13 184 0.0 1.6 0.00 0.00 0.00 55 1014.7
20260508122514 12 184 0.0 1.6 0.00 0.00 0.00 64 1014.8
20260508122001 12 198 0.0 1.6 0.00 0.00 0.00 63 1014.8
20260508121559 12 197 0.0 1.6 0.00 0.00 0.00 64 1014.8
20260508121042 11 138 0.0 1.6 0.00 0.00 0.00 68 1014.8
20260508120530 10 139 0.0 1.6 0.00 0.00 0.00 70 1014.9
20260508120116 9 33 0.0 0.0 0.00 0.00 0.00 73 1014.9
20260508115549 8 32 0.0 0.0 0.00 0.03 0.00 75 1014.8
20260508115038 8 33 0.0 0.0 0.00 0.03 0.00 76 1014.8
20260508114529 7 33 0.0 0.0 0.00 0.03 0.00 76 1014.8
20260508114015 7 32 0.0 0.0 0.00 0.03 0.00 76 1014.7
20260508113517 7 33 0.0 0.0 0.00 0.03 0.00 75 1014.7
20260508113103 7 33 0.0 0.0 0.00 0.03 0.00 75 1014.7
20260508112540 7 32 0.0 0.0 0.00 0.03 0.00 73 1014.5
20260508112030 7 33 0.0 0.0 0.00 0.03 0.00 74 1014.5
20260508111517 7 32 0.0 0.0 0.00 0.03 0.00 74 1014.5
20260508111059 7 32 0.0 0.0 0.00 0.03 0.00 74 1014.4
20260508110544 7 33 0.0 0.0 0.00 0.03 0.00 73 1014.4
20260508110015 7 33 0.0 1.6 0.00 0.03 0.00 76 1014.4
20260508105601 7 32 0.0 1.6 0.00 0.03 0.00 76 1014.3
20260508105051 7 31 0.0 0.0 0.00 0.03 0.00 75 1014.3
20260508104537 7 32 0.0 0.0 0.00 0.03 0.00 76 1014.3
20260508104019 7 31 0.0 0.0 0.00 0.03 0.00 76 1014.3
20260508103505 7 31 0.0 0.0 0.00 0.03 0.00 77 1014.4
20260508103057 7 32 0.0 1.6 0.00 0.03 0.00 76 1014.4
20260508102546 7 31 0.0 1.6 0.00 0.03 0.00 76 1014.3
20260508102033 6 17 0.0 0.0 0.00 0.03 0.00 78 1014.3
20260508101515 6 17 0.0 0.0 0.00 0.03 0.00 79 1014.3
20260508101002 6 18 0.0 0.0 0.00 0.03 0.00 80 1014.4
20260508100553 6 17 0.0 0.0 0.00 0.03 0.00 80 1014.3
20260508100009 6 18 0.0 0.0 0.00 0.03 0.00 81 1014.4
20260508095501 6 18 0.0 0.0 0.00 0.03 0.00 81 1014.4
20260508095053 6 17 0.0 0.0 0.00 0.03 0.00 81 1014.4
20260508094543 6 18 0.0 0.0 0.00 0.03 0.00 81 1014.4
20260508094032 5 18 0.0 0.0 0.00 0.03 0.00 81 1014.5
20260508093516 5 18 0.0 0.0 0.00 0.03 0.00 82 1014.4
20260508093003 5 18 0.0 0.0 0.00 0.03 0.00 82 1014.4
20260508092554 5 17 0.0 0.0 0.00 0.03 0.00 82 1014.4
20260508092045 5 18 0.0 0.0 0.00 0.03 0.00 83 1014.4
20260508091559 5 18 0.0 0.0 0.00 0.03 0.00 83 1014.4
20260508091017 4 18 0.0 0.0 0.00 0.03 0.00 83 1014.5
20260508090503 4 17 0.0 0.0 0.00 0.03 0.00 83 1014.6
20260508085532 4 17 0.0 0.0 0.00 0.03 0.00 82 1014.5
20260508085020 4 18 0.0 0.0 0.00 0.03 0.00 82 1014.5
20260508084502 3 17 0.0 0.0 0.00 0.03 0.00 82 1014.4
20260508084049 3 18 0.0 0.0 0.00 0.03 0.00 82 1014.3
20260508083543 3 18 0.0 0.0 0.00 0.03 0.00 82 1014.4
20260508083033 3 18 0.0 0.0 0.00 0.03 0.00 81 1014.4
20260508082514 3 17 0.0 0.0 0.00 0.03 0.00 81 1014.4
20260508082059 3 17 0.0 0.0 0.00 0.03 0.00 81 1014.3
20260508081550 3 17 0.0 0.0 0.00 0.03 0.00 82 1014.4
20260508081034 4 17 0.0 0.0 0.00 0.03 0.00 82 1014.4
20260508080515 3 17 0.0 0.0 0.00 0.03 0.00 81 1014.4
20260508080129 3 18 0.0 0.0 0.00 0.03 0.00 81 1014.4
20260508075537 3 18 0.0 0.0 0.00 0.03 0.00 81 1014.3
20260508075027 3 18 0.0 0.0 0.00 0.03 0.00 80 1014.4
20260508074513 3 17 0.0 0.0 0.00 0.03 0.00 80 1014.4
20260508074101 3 18 0.0 0.0 0.00 0.03 0.00 80 1014.4
20260508073547 4 18 0.0 0.0 0.00 0.03 0.00 80 1014.4
20260508073038 4 18 0.0 0.0 0.00 0.03 0.00 79 1014.3
20260508072527 4 17 0.0 0.0 0.00 0.03 0.00 79 1014.3
20260508072009 4 18 0.0 0.0 0.00 0.03 0.00 79 1014.3
20260508071601 4 17 0.0 0.0 0.00 0.03 0.00 79 1014.5
20260508071049 4 18 0.0 0.0 0.00 0.03 0.00 79 1014.5
20260508070541 4 17 0.0 0.0 0.00 0.03 0.00 79 1014.5
20260508070010 4 17 0.0 0.0 0.00 0.03 0.00 78 1014.6
20260508065556 4 17 0.0 0.0 0.00 0.03 0.00 78 1014.6
20260508065045 5 18 0.0 0.0 0.00 0.03 0.00 78 1014.6
20260508064540 5 18 0.0 0.0 0.00 0.03 0.00 78 1014.6
20260508064027 5 18 0.0 0.0 0.00 0.03 0.00 78 1014.7
20260508063516 5 18 0.0 0.0 0.00 0.03 0.00 77 1014.8
20260508063139 5 18 0.0 0.0 0.00 0.03 0.00 77 1014.9
20260508062546 5 18 0.0 0.0 0.00 0.03 0.00 77 1014.9
20260508062041 5 17 0.0 0.0 0.00 0.03 0.00 78 1015.0
20260508061529 5 18 0.0 0.0 0.00 0.03 0.00 78 1015.1
20260508061011 5 18 0.0 0.0 0.00 0.03 0.00 77 1015.2
20260508060502 5 17 0.0 0.0 0.00 0.03 0.00 77 1015.2
20260508060053 5 17 0.0 0.0 0.00 0.03 0.00 77 1015.2
20260508055520 5 17 0.0 0.0 0.00 0.03 0.00 78 1015.1
20260508055009 5 18 0.0 0.0 0.00 0.03 0.00 78 1015.1
20260508054557 5 17 0.0 0.0 0.00 0.03 0.00 79 1015.1
20260508054041 4 18 0.0 0.0 0.00 0.03 0.00 78 1015.1
20260508053532 4 18 0.0 0.0 0.00 0.03 0.00 78 1015.1
20260508053009 4 17 0.0 0.0 0.00 0.03 0.00 79 1015.2
20260508052555 4 17 0.0 0.0 0.00 0.03 0.00 79 1015.2
20260508052050 4 17 0.0 0.0 0.00 0.03 0.00 79 1015.2
20260508051552 4 18 0.0 0.0 0.00 0.03 0.00 79 1015.1
20260508051013 4 17 0.0 0.0 0.00 0.03 0.00 79 1015.1
20260508050507 4 17 0.0 0.0 0.00 0.03 0.00 80 1015.0
20260508050056 4 17 0.0 0.0 0.00 0.03 0.00 79 1015.0
20260508045528 4 17 0.0 0.0 0.00 0.03 0.00 79 1015.0
20260508045007 4 18 0.0 0.0 0.00 0.03 0.00 79 1014.9
20260508044600 5 17 0.0 0.0 0.00 0.03 0.00 80 1015.0
20260508044049 5 17 0.0 0.0 0.00 0.03 0.00 80 1015.0
20260508043541 4 18 0.0 0.0 0.00 0.03 0.00 81 1015.0
20260508043029 4 18 0.0 0.0 0.00 0.03 0.00 81 1015.0
20260508042520 4 17 0.0 0.0 0.00 0.03 0.00 81 1015.0
20260508042006 4 18 0.0 0.0 0.00 0.03 0.00 82 1015.0
20260508041555 4 17 0.0 0.0 0.00 0.03 0.00 82 1015.0
20260508041043 5 18 0.0 0.0 0.00 0.03 0.00 82 1014.9
20260508040533 5 17 0.0 0.0 0.00 0.03 0.00 82 1014.9
20260508040142 5 18 0.0 0.0 0.00 0.03 0.00 82 1014.9
20260508035542 4 17 0.0 0.0 0.00 0.03 0.03 81 1014.8
20260508035037 4 18 0.0 0.0 0.00 0.03 0.03 81 1014.7
20260508034528 4 17 0.0 0.0 0.00 0.03 0.03 82 1014.7
20260508034011 4 17 0.0 0.0 0.00 0.03 0.03 82 1014.8
20260508033503 5 18 0.0 0.0 0.00 0.03 0.03 82 1014.9
20260508033051 5 17 0.0 0.0 0.00 0.03 0.03 82 1015.0
20260508032539 5 17 0.0 0.0 0.00 0.03 0.03 82 1015.0
20260508032017 5 18 0.0 0.0 0.00 0.03 0.03 81 1014.9
20260508031507 5 18 0.0 0.0 0.00 0.03 0.03 81 1015.0
20260508031057 5 17 0.0 0.0 0.00 0.03 0.03 81 1015.0
20260508030541 5 18 0.0 0.0 0.00 0.03 0.03 80 1014.9
20260508030016 5 17 0.0 0.0 0.00 0.03 0.03 80 1014.9
20260508025557 5 18 0.0 0.0 0.00 0.03 0.03 80 1014.9
20260508025046 5 17 0.0 0.0 0.00 0.03 0.03 80 1014.8